ONEWEB-0293, 49082

Orbit data source: Space-Track

ONEWEB-0293, 49082 is a payload satellite owned by One Web (NAA) (UK) in LEO that was launched on Sat, 21 Aug 2021 UTC via a SOYUZ-2-1B launch vehicle from the Tyuratam Missile And Space Complex (TTMTR). Payload-class satellites include a variety of spacecraft equipped with specific instruments for various scientific and technological missions. These include communications satellites like Starlink; space stations such as the ISS; scientific satellites like the Hubble; Earth observation satellites from companies like Planet Labs, Umbra, and HawkEye 360; GPS; miniature CubeSats for education and research; and military/defense satellites.

Loading next visibility...
Identifier
49082, 2021-075H
Orbit
LEO
Country
Flag of UKUK
Related business
Manufacturer
One Web
Mission
Operational Commercial Communications
Bus & Motor
ARROW, Unknown motor
Mass
148 kg wet, ~140 kg dry
Launch date (UTC)
2021-08-21 (5 years ago)
Launch vehicle
SOYUZ-2-1B
Launch site
Tyuratam Missile And Space Complex (TTMTR)
Object type
Payload
Rocket body
Debris
Shape & HBR
Trap Box + 2 Pan, 6.7 m
Radar Cross Section
3.464 m², Large (>1 m²)

Expand to show TLE details & history
Last TLE update: 22 hours ago

TLE from 22 hours ago
0 ONEWEB-0293
1 49082U 21075H   26175.25065406  .00000035  00000-0  56996-4 0  9994
2 49082  87.9131   4.4599 0001943  93.3977 266.7376 13.17648459234565
Epoch: 2026-06-24T06:00Z
TLE epoch observation values (Epoch: 2026-06-24T06:00:56.510Z)
Latitude
-0.00012°
Longitude
1.81388°
Altitude
1,196.698 km
Speed
7.255 km/s
True Right ascension
00h 17m 50s
True Declination
0° 00' 00"
Sunlit
Object was in daylight at epoch
Visualization orbit readout
Latitude
Unknown
Longitude
Unknown
Altitude
Unknown
Speed
Unknown
Apparent Right ascension
Unknown
Apparent Declination
Unknown
Sunlit
N/A
Visualization observer readout
Local Sidereal Time
15:24:59
Azimuth
Unknown
Elevation
Unknown
Doppler factor
Unknown
Orbital elements
Apogee altitude
1,192.295 km
Perigee altitude
1,189.353 km
Semi-major axis
7,568.961 km
Eccentricity
0.00019
Inclination
87.9131°
RAAN
4.4599°
Arg. of periapsis
93.3977°
True anomaly
266.71537°
Mean anomaly
266.7376°
Eccentric anomaly
266.72649°
Mean motion
3.29601 °/min
Orbital period
109.22 mins
BSTAR
0.000056996
Loading maneuver chart data...
Computing Atmospheric mass density...
Loading historical data...
Loading historical data...
Loading historical data...
Loading historical data...
Loading historical data...
Loading historical data...
Loading historical data...

Documentation

Showing up to 5 results
|